When you browse on this site, cookies collect data to enhance your experience and personalize the content and advertising you see.
Visit our Privacy Policy to learn more. By continuing to use the site, you agree to this use of cookies and data.
  • în România
  • Lista ţărilor
  • Pe 7 zile
  • Temperatura apei
  • Meteo pe hartă
  • Widget-uri
  • user-avatar
    Intrare

    Meteo pe oră la Innsbruck

    Astăzi, 21 August, Miercuri

    Timp Temperatura Precipitaţii Vânt Presiune Umiditate
    00:00 +6°C° 1.5 mm 2 m/s 602 mmHg 98%
    01:00 +5°C° 1.5 mm 2 m/s 602 mmHg 98%
    02:00 +5°C° 1 mm 2 m/s 601 mmHg 97%
    03:00 +6°C° 1 mm 1 m/s 601 mmHg 97%
    04:00 +5°C° 1 mm 1 m/s 601 mmHg 97%
    05:00 +6°C° 0.4 mm 1 m/s 601 mmHg 96%
    06:00 +6°C° 0.4 mm 1 m/s 601 mmHg 96%
    07:00 +6°C° 0.4 mm 1 m/s 602 mmHg 95%
    08:00 +7°C° 0.1 mm 1 m/s 602 mmHg 92%
    09:00 +8°C° 0.1 mm 1 m/s 602 mmHg 89%
    10:00 +9°C° 0.1 mm 1 m/s 603 mmHg 85%
    11:00 +10°C° 0.1 mm 1 m/s 603 mmHg 82%
    12:00 +11°C° 0.1 mm 1 m/s 603 mmHg 78%
    13:00 +12°C° 0.1 mm 1 m/s 604 mmHg 75%
    14:00 +12°C° 0.3 mm 1 m/s 603 mmHg 76%
    15:00 +12°C° 0.3 mm 2 m/s 603 mmHg 77%
    16:00 +12°C° 0.3 mm 2 m/s 603 mmHg 78%
    17:00 +11°C° 0.3 mm 1 m/s 603 mmHg 82%
    18:00 +10°C° 0.3 mm 1 m/s 602 mmHg 87%
    19:00 +9°C° 0.3 mm 1 m/s 602 mmHg 91%
    20:00 +9°C° 0.2 mm 1 m/s 602 mmHg 92%
    21:00 +8°C° 0.2 mm 1 m/s 601 mmHg 94%
    22:00 +7°C° 0.2 mm 1 m/s 601 mmHg 95%
    23:00 +7°C° 0 mm 1 m/s 601 mmHg 94%

    Mâine, 22 August, Joi

    Timp Temperatura Precipitaţii Vânt Presiune Umiditate
    00:00 +7°C° 0 mm 1 m/s 601 mmHg 93%
    01:00 +7°C° 0 mm 1 m/s 601 mmHg 92%
    02:00 +7°C° 0.1 mm 1 m/s 601 mmHg 91%
    03:00 +7°C° 0.1 mm 1 m/s 601 mmHg 91%
    04:00 +7°C° 0.1 mm 1 m/s 601 mmHg 90%
    05:00 +9°C° 0 mm 1 m/s 601 mmHg 88%
    06:00 +9°C° 0 mm 0 m/s 602 mmHg 85%
    07:00 +10°C° 0 mm 0 m/s 603 mmHg 82%
    08:00 +11°C° 0.1 mm 0 m/s 603 mmHg 76%
    09:00 +14°C° 0.1 mm 1 m/s 604 mmHg 69%
    10:00 +16°C° 0.1 mm 1 m/s 605 mmHg 63%
    11:00 +18°C° 0.6 mm 1 m/s 605 mmHg 61%
    12:00 +18°C° 0.6 mm 1 m/s 605 mmHg 60%
    13:00 +19°C° 0.6 mm 1 m/s 605 mmHg 58%
    14:00 +18°C° 1 mm 1 m/s 605 mmHg 62%
    15:00 +18°C° 1 mm 1 m/s 604 mmHg 65%
    16:00 +16°C° 1 mm 1 m/s 604 mmHg 68%
    17:00 +15°C° 0.8 mm 1 m/s 604 mmHg 75%
    18:00 +13°C° 0.8 mm 1 m/s 603 mmHg 82%
    19:00 +12°C° 0.8 mm 1 m/s 603 mmHg 89%
    20:00 +10°C° 0.1 mm 0 m/s 603 mmHg 89%
    21:00 +9°C° 0.1 mm 0 m/s 603 mmHg 90%
    22:00 +8°C° 0.1 mm 0 m/s 602 mmHg 90%
    23:00 +8°C° 0 mm 0 m/s 602 mmHg 90%

    Poimâine, 23 August, Vineri

    Timp Temperatura Precipitaţii Vânt Presiune Umiditate
    00:00 +8°C° 0 mm 0 m/s 602 mmHg 90%
    01:00 +7°C° 0 mm 0 m/s 602 mmHg 90%
    02:00 +8°C° 0 mm 1 m/s 601 mmHg 89%
    03:00 +8°C° 0 mm 1 m/s 601 mmHg 88%
    04:00 +8°C° 0 mm 1 m/s 601 mmHg 87%
    05:00 +9°C° 0 mm 1 m/s 602 mmHg 85%
    06:00 +10°C° 0 mm 1 m/s 602 mmHg 83%
    07:00 +11°C° 0 mm 1 m/s 603 mmHg 81%
    08:00 +13°C° 0.1 mm 1 m/s 604 mmHg 74%
    09:00 +15°C° 0.1 mm 1 m/s 604 mmHg 67%
    10:00 +18°C° 0.1 mm 1 m/s 605 mmHg 59%
    11:00 +19°C° 0.6 mm 1 m/s 605 mmHg 58%
    12:00 +19°C° 0.6 mm 1 m/s 605 mmHg 57%
    13:00 +20°C° 0.6 mm 1 m/s 605 mmHg 56%
    14:00 +19°C° 1.1 mm 1 m/s 605 mmHg 61%
    15:00 +17°C° 1.1 mm 2 m/s 604 mmHg 66%
    16:00 +17°C° 1.1 mm 2 m/s 604 mmHg 72%
    17:00 +15°C° 0.9 mm 1 m/s 603 mmHg 78%
    18:00 +13°C° 0.9 mm 1 m/s 602 mmHg 84%
    19:00 +11°C° 0.9 mm 0 m/s 602 mmHg 90%
    20:00 +11°C° 0.3 mm 1 m/s 602 mmHg 90%
    21:00 +11°C° 0.3 mm 1 m/s 602 mmHg 89%
    22:00 +10°C° 0.3 mm 1 m/s 602 mmHg 89%
    23:00 +10°C° 0 mm 1 m/s 601 mmHg 89%

    24 August, Sâmbătă

    Timp Temperatura Precipitaţii Vânt Presiune Umiditate
    00:00 +9°C° 0 mm 1 m/s 601 mmHg 88%
    01:00 +9°C° 0 mm 1 m/s 600 mmHg 87%
    02:00 +9°C° 0 mm 1 m/s 600 mmHg 87%
    03:00 +9°C° 0 mm 1 m/s 600 mmHg 87%
    04:00 +8°C° 0 mm 1 m/s 600 mmHg 87%
    05:00 +10°C° 0 mm 1 m/s 601 mmHg 85%
    06:00 +11°C° 0 mm 1 m/s 601 mmHg 83%
    07:00 +12°C° 0 mm 1 m/s 602 mmHg 81%
    08:00 +14°C° 0 mm 1 m/s 603 mmHg 72%
    09:00 +16°C° 0 mm 1 m/s 604 mmHg 62%
    10:00 +20°C° 0 mm 1 m/s 605 mmHg 53%
    11:00 +20°C° 0.3 mm 1 m/s 604 mmHg 52%
    12:00 +20°C° 0.3 mm 1 m/s 604 mmHg 51%
    13:00 +21°C° 0.3 mm 1 m/s 604 mmHg 50%
    14:00 +20°C° 1.1 mm 1 m/s 604 mmHg 55%
    15:00 +19°C° 1.1 mm 1 m/s 603 mmHg 61%
    16:00 +18°C° 1.1 mm 1 m/s 603 mmHg 67%
    17:00 +16°C° 0.9 mm 1 m/s 602 mmHg 74%
    18:00 +13°C° 0.9 mm 0 m/s 601 mmHg 80%
    19:00 +11°C° 0.9 mm 0 m/s 601 mmHg 87%
    20:00 +11°C° 0.5 mm 0 m/s 601 mmHg 87%
    21:00 +12°C° 0.5 mm 1 m/s 601 mmHg 87%
    22:00 +11°C° 0.5 mm 1 m/s 601 mmHg 88%
    23:00 +11°C° 0 mm 1 m/s 601 mmHg 87%

    25 August, Duminică

    Timp Temperatura Precipitaţii Vânt Presiune Umiditate
    00:00 +10°C° 0 mm 1 m/s 600 mmHg 87%
    01:00 +10°C° 0 mm 1 m/s 600 mmHg 87%
    02:00 +9°C° 0 mm 1 m/s 600 mmHg 87%
    03:00 +9°C° 0 mm 1 m/s 599 mmHg 87%
    04:00 +8°C° 0 mm 1 m/s 599 mmHg 87%
    05:00 +10°C° 0 mm 1 m/s 600 mmHg 85%
    06:00 +11°C° 0 mm 1 m/s 600 mmHg 82%
    07:00 +11°C° 0 mm 0 m/s 601 mmHg 79%
    08:00 +14°C° 0.2 mm 1 m/s 602 mmHg 72%
    09:00 +16°C° 0.2 mm 1 m/s 603 mmHg 65%
    10:00 +19°C° 0.2 mm 1 m/s 604 mmHg 59%
    11:00 +19°C° 1.5 mm 1 m/s 603 mmHg 59%
    12:00 +19°C° 1.5 mm 1 m/s 603 mmHg 60%
    13:00 +20°C° 1.5 mm 1 m/s 603 mmHg 61%
    14:00 +19°C° 1.9 mm 1 m/s 603 mmHg 66%
    15:00 +18°C° 1.9 mm 1 m/s 602 mmHg 71%
    16:00 +16°C° 1.9 mm 1 m/s 602 mmHg 77%
    17:00 +15°C° 0.7 mm 1 m/s 602 mmHg 80%
    18:00 +14°C° 0.7 mm 1 m/s 601 mmHg 84%
    19:00 +12°C° 0.7 mm 1 m/s 601 mmHg 88%
    20:00 +11°C° 0 mm 1 m/s 601 mmHg 89%
    21:00 +10°C° 0 mm 1 m/s 600 mmHg 90%
    22:00 +9°C° 0 mm 1 m/s 600 mmHg 91%
    23:00 +9°C° 0 mm 1 m/s 600 mmHg 91%

    26 August, Luni

    Timp Temperatura Precipitaţii Vânt Presiune Umiditate
    00:00 +9°C° 0 mm 1 m/s 600 mmHg 91%
    01:00 +8°C° 0 mm 1 m/s 600 mmHg 91%
    02:00 +8°C° 0 mm 1 m/s 600 mmHg 91%
    03:00 +8°C° 0 mm 1 m/s 600 mmHg 91%
    04:00 +7°C° 0 mm 1 m/s 599 mmHg 91%
    05:00 +9°C° 0 mm 1 m/s 600 mmHg 89%
    06:00 +10°C° 0 mm 1 m/s 601 mmHg 87%
    07:00 +11°C° 0 mm 1 m/s 602 mmHg 85%
    08:00 +13°C° 0 mm 1 m/s 603 mmHg 75%
    09:00 +16°C° 0 mm 1 m/s 604 mmHg 65%
    10:00 +19°C° 0 mm 1 m/s 605 mmHg 55%
    11:00 +20°C° 0 mm 1 m/s 605 mmHg 49%
    12:00 +21°C° 0 mm 1 m/s 605 mmHg 43%
    13:00 +21°C° 0 mm 2 m/s 606 mmHg 37%
    14:00 +20°C° 0 mm 2 m/s 606 mmHg 38%
    15:00 +20°C° 0 mm 2 m/s 605 mmHg 39%
    16:00 +19°C° 0 mm 2 m/s 605 mmHg 39%
    17:00 +17°C° 0 mm 2 m/s 604 mmHg 53%
    18:00 +14°C° 0 mm 1 m/s 603 mmHg 66%
    19:00 +12°C° 0 mm 1 m/s 602 mmHg 79%
    20:00 +11°C° 0 mm 1 m/s 602 mmHg 82%
    21:00 +10°C° 0 mm 1 m/s 602 mmHg 85%
    22:00 +9°C° 0 mm 1 m/s 601 mmHg 88%
    23:00 +9°C° 0 mm 1 m/s 601 mmHg 88%
    Arată mai mult